DateTimeUTC,F1_A11,F1_S11,BsB_S11,BsG_S11,BsR_S11,BbsB_S11,BbsG_S11,BbsR_S11,BaB_A11,BaG_A11,BaR_A11,Tu_S11,T_S11,Uu_S11,U_S11,P_S11,T1_A11
2021-03-31T15:00:00Z,00000200,21000000,,,,,,,-000.47,-000.08,-000.24,16.9,23.9,,00.0,0650.5,30.9
2021-03-31T15:01:00Z,00000200,21000000,,,,,,,-000.51,-000.49,0000.00,16.9,23.9,,00.0,0650.6,30.9
2021-03-31T15:02:00Z,00000200,21000000,,,,,,,-000.57,-000.24,-000.42,16.9,23.9,,00.0,0650.6,31.0
2021-03-31T15:03:00Z,00000200,61000000,,,,,,,-000.13,-000.13,-000.02,16.9,24.0,,00.0,0650.6,30.9
2021-03-31T15:04:00Z,00000200,41000000,0001.21,0001.15,0000.71,0000.13,-000.00,0000.35,0000.50,0000.14,0000.00,17.0,23.8,00.0,00.0,0651.7,30.9
2021-03-31T15:05:00Z,00000200,01000000,0001.68,0001.14,0000.60,0000.29,-000.12,0000.19,0000.37,0000.42,0000.60,17.1,23.8,,00.0,0651.8,30.9
2021-03-31T15:06:00Z,00000200,01000000,0001.44,0001.17,0000.82,0000.46,0000.05,0000.28,0000.77,0000.74,0000.14,17.1,23.8,00.0,00.0,0651.9,30.9
2021-03-31T15:07:00Z,00000200,01000000,0001.37,0001.18,0000.62,-000.10,0000.07,0000.33,0000.04,0000.21,0000.30,17.1,23.8,,00.0,0652.0,30.9
2021-03-31T15:08:00Z,00000200,01000000,0001.52,0001.25,0000.81,0000.41,-000.14,0000.33,0000.64,0000.39,0000.06,17.1,23.8,,00.0,0651.9,30.9
2021-03-31T15:09:00Z,00000200,01000000,0001.77,0000.99,0000.62,0000.05,0000.24,0000.05,0000.57,0000.31,0000.74,17.1,23.7,00.0,00.0,0651.8,30.9
2021-03-31T15:10:00Z,00000200,01000000,0001.95,0001.08,0000.89,0000.34,0000.13,0000.48,0000.61,0000.94,0000.33,17.1,23.7,,00.0,0651.8,30.9
2021-03-31T15:11:00Z,00000200,01000000,0002.05,0000.96,0000.66,0000.42,0000.15,-000.06,0000.30,-000.23,0000.13,17.1,23.7,,00.0,0651.9,30.9
2021-03-31T15:12:00Z,00000200,01000000,0001.17,0001.08,0000.83,0000.29,0000.22,0000.56,0000.43,0000.83,0000.57,17.0,23.7,00.0,00.0,0652.0,30.9
2021-03-31T15:13:00Z,00000200,01000000,0002.23,0001.30,0000.64,0000.34,0000.15,0000.49,0000.07,-000.11,-000.15,17.0,23.7,00.0,00.0,0652.0,30.9
2021-03-31T15:14:00Z,00000200,01000000,0001.48,0001.19,0000.84,0000.23,-000.09,0000.34,0000.09,-000.02,0000.11,17.0,23.7,,00.0,0651.9,30.9
2021-03-31T15:15:00Z,00000200,01000000,0001.31,0001.26,0000.73,0000.22,0000.12,0000.14,0000.35,0000.85,0000.51,17.0,23.7,,00.0,0652.0,30.9
2021-03-31T15:16:00Z,00000200,01000000,0001.22,0001.24,0000.94,-000.22,0000.21,0000.23,0001.10,0000.60,0000.44,17.0,23.7,,00.0,0651.9,30.9
2021-03-31T15:17:00Z,00000200,01000000,0001.98,0001.21,0000.91,0000.32,-000.05,0000.49,0000.37,0000.43,0000.38,17.0,23.7,,00.0,0651.9,30.9
2021-03-31T15:18:00Z,00000200,01000000,0001.97,0001.55,0000.90,0000.73,0000.25,0000.46,0001.05,0000.85,0000.71,17.0,23.7,,00.0,0651.9,30.9
2021-03-31T15:19:00Z,00000200,01000000,0001.66,0001.10,0000.77,0000.76,0000.13,0000.45,0000.66,0000.56,0000.53,17.0,23.7,00.0,00.0,0651.8,30.9
2021-03-31T15:20:00Z,00000200,01000000,0001.98,0001.20,0000.89,0000.52,0000.04,0000.29,0000.17,0000.11,0000.16,17.0,23.7,,00.0,0651.9,30.9
2021-03-31T15:21:00Z,00000200,01000000,0001.47,0001.13,0000.95,0000.76,0000.25,0000.24,-000.01,0000.29,0000.18,16.9,23.7,,00.0,0652.0,30.9
2021-03-31T15:22:00Z,00000200,01000000,0001.77,0001.41,0000.74,0000.62,-000.09,0000.41,0000.34,-000.18,0000.21,16.9,23.6,,00.0,0652.0,30.9
2021-03-31T15:23:00Z,00000200,01000000,0001.68,0001.34,0000.67,0000.12,0000.11,0000.19,0000.26,0000.21,0000.32,16.9,23.6,,00.0,0652.1,30.9
2021-03-31T15:24:00Z,00000200,01000000,0002.17,0001.12,0000.64,0000.25,0000.26,0000.38,0000.44,0000.83,0000.27,16.9,23.6,,00.0,0652.1,30.9
2021-03-31T15:25:00Z,00000200,01000000,0002.23,0001.37,0000.83,0000.09,-000.04,0000.08,0000.31,0000.34,0000.33,16.9,23.6,,00.0,0652.2,30.9
2021-03-31T15:26:00Z,00000200,01000000,0002.23,0001.40,0001.07,-000.17,-000.01,0000.31,0000.78,0000.00,0000.20,16.9,23.6,,00.0,0652.2,30.9
2021-03-31T15:27:00Z,00000200,01000000,0001.63,0001.26,0000.89,0000.27,0000.29,0000.15,0000.80,0001.57,0001.20,17.0,23.6,,00.0,0652.3,30.9
2021-03-31T15:28:00Z,00000200,01000000,0001.73,0001.29,0000.78,0000.06,-000.07,0000.33,0001.31,0000.53,0000.44,17.1,23.7,00.0,00.0,0652.3,30.9
2021-03-31T15:29:00Z,00000200,01000000,0002.38,0001.30,0000.90,0000.29,0000.15,0000.40,0000.66,0001.42,0000.71,17.1,23.7,,00.0,0652.2,30.9
2021-03-31T15:30:00Z,00000200,01000000,0002.24,0001.21,0000.74,0000.36,0000.00,0000.38,0000.96,0000.44,0000.53,17.2,23.7,,00.0,0652.2,31.0
2021-03-31T15:31:00Z,00000200,01000000,0001.87,0001.47,0000.96,0000.32,0000.35,0000.48,0001.44,0001.59,0001.33,17.2,23.7,00.0,00.0,0652.3,31.0
2021-03-31T15:32:00Z,00000200,01000000,0001.49,0001.33,0001.11,-000.16,0000.22,0000.67,0000.51,0000.28,0000.09,17.2,23.7,00.0,00.0,0652.3,30.9
2021-03-31T15:33:00Z,00000200,01000000,0002.00,0001.42,0000.99,0000.49,0000.40,0000.43,0000.49,-000.01,0000.20,17.1,23.7,00.0,00.0,0652.3,30.9
2021-03-31T15:34:00Z,00000200,01000000,0002.26,0001.59,0001.03,0000.16,0000.21,0000.35,0000.41,0000.82,0000.10,17.1,23.7,,00.0,0652.4,30.9
2021-03-31T15:35:00Z,00000200,01000000,0002.04,0001.28,0001.12,0000.10,0000.01,0000.39,0000.55,0000.33,0000.50,17.1,23.7,,00.0,0652.4,30.9
2021-03-31T15:36:00Z,00000200,01000000,0002.89,0001.56,0001.02,0000.35,-000.04,0000.37,0000.49,0000.78,0000.81,17.1,23.7,,00.0,0652.5,30.9
2021-03-31T15:37:00Z,00000200,01000000,0002.24,0001.62,0000.92,0000.38,0000.26,0000.42,0000.77,0000.38,0000.58,17.1,23.7,00.0,00.0,0652.6,30.9
2021-03-31T15:38:00Z,00000200,01000000,0002.71,0001.63,0001.14,0000.47,0000.15,0000.40,0000.25,0000.24,0000.33,17.1,23.7,,00.0,0652.6,30.9
2021-03-31T15:39:00Z,00000200,01000000,0002.72,0001.30,0000.91,0000.06,-000.01,0000.50,0000.44,0000.71,0000.28,17.1,23.7,,00.0,0652.5,30.9
2021-03-31T15:40:00Z,00000200,01000000,0002.44,0001.18,0001.01,0000.43,0000.14,0000.31,0001.07,0000.60,0000.49,17.1,23.7,,00.0,0652.5,30.9
2021-03-31T15:41:00Z,00000200,01000000,0002.39,0001.51,0000.83,0000.17,0000.31,0000.46,0000.46,0000.63,0000.56,17.1,23.7,,00.0,0652.4,30.9
2021-03-31T15:42:00Z,00000200,01000000,0002.52,0001.66,0000.93,0000.55,0000.30,0000.12,0000.52,0000.77,0000.14,17.1,23.7,,00.0,0652.4,30.9
2021-03-31T15:43:00Z,00000200,01000000,0002.19,0001.68,0000.99,0000.65,-000.04,0000.18,0000.43,-000.20,0000.50,17.2,23.7,,00.0,0652.4,30.9
2021-03-31T15:44:00Z,00000200,01000000,0002.44,0001.37,0000.79,0000.64,0000.18,0000.38,0000.48,0000.70,0000.27,17.2,23.7,,00.0,0652.5,30.9
2021-03-31T15:45:00Z,00000200,01000000,0002.28,0001.88,0001.15,0000.28,0000.17,0000.45,0000.41,0000.81,0000.62,17.2,23.7,,00.0,0652.5,30.9
2021-03-31T15:46:00Z,00000200,01000000,0002.03,0001.43,0000.69,-000.20,0000.05,0000.26,0000.67,0000.49,0000.21,17.2,23.8,00.0,00.0,0652.5,30.9
2021-03-31T15:47:00Z,00000200,01000000,0002.59,0001.51,0000.96,-000.01,0000.31,0000.22,0000.79,0000.49,0000.30,17.2,23.8,,00.0,0652.5,30.9
2021-03-31T15:48:00Z,00000200,01000000,0002.37,0001.40,0001.02,-000.08,0000.38,0000.54,0000.13,0000.43,0000.50,17.1,23.8,,00.0,0652.6,30.9
2021-03-31T15:49:00Z,00000200,01000000,0002.66,0001.77,0000.74,0000.55,0000.31,0000.36,0000.64,0000.30,0000.13,17.1,23.7,,00.0,0652.5,30.9
2021-03-31T15:50:00Z,00000200,01000000,0001.98,0001.59,0000.95,-000.01,0000.31,0000.51,0000.14,0000.27,0000.56,17.1,23.7,,00.0,0652.5,30.9
2021-03-31T15:51:00Z,00000200,01000000,0002.33,0001.68,0000.96,0000.19,0000.12,0000.18,0000.47,0000.27,0000.00,17.1,23.7,,00.0,0652.5,30.9
2021-03-31T15:52:00Z,00000200,01000000,0002.84,0001.73,0001.12,0000.45,0000.45,0000.48,0000.69,0000.47,0000.45,17.1,23.7,,00.0,0652.5,30.9
2021-03-31T15:53:00Z,00000200,01000000,0002.62,0001.37,0000.60,0000.44,0000.17,-000.03,0000.38,0000.60,0000.79,17.1,23.7,,00.0,0652.6,30.9
2021-03-31T15:54:00Z,00000200,01000000,0002.80,0001.53,0000.90,0000.25,0000.31,0000.32,0000.47,0000.49,-000.05,17.1,23.7,,00.0,0652.5,30.9
2021-03-31T15:55:00Z,00000200,01000000,0002.18,0001.41,0001.21,0000.41,0000.11,0000.15,0000.71,0000.46,0000.50,17.1,23.7,,00.0,0652.5,30.9
2021-03-31T15:56:00Z,00000200,01000000,0001.95,0001.54,0000.89,0000.18,0000.21,0000.33,0000.47,0000.22,0000.28,17.1,23.7,,00.0,0652.6,30.9
2021-03-31T15:57:00Z,00000200,41000000,,,,,,,0001.46,0001.70,0000.94,17.2,23.8,,00.0,0652.5,30.9
2021-03-31T15:58:00Z,00000200,61000000,,,,,,,-000.57,-000.81,-000.32,16.9,23.9,,00.0,0651.8,30.9
2021-03-31T15:59:00Z,00000200,21000000,,,,,,,-000.47,-000.33,-000.46,16.9,24.0,,00.0,0651.7,30.9
